GFSNIL_prec_kratio_159.txt.gz
Kuchera_Ratio
0.0 0.0 0.0 0.0 0.0 0.0 0.0 0.0 0.0 0.0 0.0 0.0 0.0 0.0 0.0 0.0 0.0 0.0 0.0 0.0 0.0 0.0
0.0 0.0 0.0 0.0 0.0 0.0 0.0 0.0 0.0 0.0 0.0 0.0 0.0 0.0 0.0 0.0 0.0 0.0 0.0 0.0 0.0 0.0
0.0 0.0 0.0 0.0 0.0 0.0 0.0 0.0 0.0 0.0 0.0 0.0 0.0 0.0 0.0 0.0 0.0 0.0 0.0 0.0 0.0 0.0
0.0 0.0 0.0 0.0 0.0 0.0 0.0 0.0 0.0 0.0 0.0 0.0 0.0 0.0 0.0 0.0 0.0 0.0 0.0 0.0 0.0 0.0
0.1 0.0 0.0 0.0 0.0 0.0 0.0 0.0 0.0 0.0 0.0 0.0 0.0 0.0 0.0 0.5 0.0 0.1 0.0 0.0 0.0 0.0
1.9 1.5 1.7 0.7 0.0 0.0 0.1 0.3 0.0 0.0 0.3 0.0 0.0 0.0 0.0 0.1 1.1 1.7 1.3 0.0 0.0 0.0
3.3 2.3 1.1 1.3 0.3 1.1 1.1 2.9 3.1 2.1 0.9 0.0 0.0 0.0 0.3 1.7 2.9 2.7 1.5 0.0 0.0 0.0
3.3 1.7 1.3 3.1 1.7 1.7 3.7 4.3 4.1 3.7 1.9 0.3 1.9 1.1 3.5 3.7 4.1 4.1 3.1 1.7 0.0 0.0
3.7 3.9 4.9 3.9 2.9 3.9 5.5 4.5 5.1 5.3 3.9 4.3 2.5 3.5 3.5 4.1 5.1 3.9 3.5 3.5 0.0 0.0
4.5 6.1 6.1 4.7 4.9 7.7 6.9 5.9 6.7 6.3 4.9 5.1 3.7 4.1 4.5 4.9 4.1 3.3 3.9 4.5 2.9 0.0
6.3 7.5 6.9 5.9 7.3 7.5 6.5 8.7 7.1 6.5 5.5 5.7 3.5 5.9 6.1 6.1 3.5 3.3 3.1 4.9 4.3 3.5
8.3 8.7 8.3 7.1 8.7 7.7 7.5 8.9 7.9 5.9 6.7 7.5 6.3 7.3 7.1 7.3 6.1 4.9 5.9 5.5 5.5 5.3
7.7 8.1 8.1 6.7 8.1 9.3 8.3 9.3 6.9 7.9 7.9 8.1 8.9 8.5 7.7 8.3 8.3 9.1 8.7 7.1 6.7 7.7
7.5 7.9 7.1 6.7 6.9 8.7 9.7 10.1 10.9 10.1 9.3 8.7 9.5 9.5 8.5 8.7 10.7 10.3 10.9 9.3 8.9 8.9

GFSNIL_prec_kratio_162.txt.gz
Kuchera_Ratio
0.0 0.0 0.0 0.0 0.0 0.0 0.0 0.0 0.0 0.0 0.0 0.0 0.0 0.0 0.0 0.0 0.0 0.0 0.0 0.0 0.0 0.0
0.0 0.0 0.0 0.0 0.0 0.0 0.0 0.0 0.0 0.0 0.0 0.0 0.0 0.0 0.0 0.0 0.0 0.0 0.0 0.0 0.0 0.0
0.0 0.0 0.0 0.0 0.0 0.0 0.0 0.0 0.0 0.0 0.0 0.0 0.0 0.0 0.0 0.0 0.0 0.0 0.0 0.0 0.0 0.0
0.0 0.0 0.0 0.0 0.0 0.0 0.0 0.0 0.0 0.0 0.0 0.0 0.0 0.0 0.0 0.0 0.0 0.0 0.0 0.0 0.0 0.0
0.0 0.0 0.0 0.0 0.0 0.0 0.0 0.0 0.0 0.0 0.0 0.0 0.0 0.0 0.0 0.0 0.0 0.0 0.0 0.0 0.0 0.0
0.0 0.0 0.0 0.0 0.0 0.0 0.0 0.0 0.0 0.0 0.0 0.0 0.0 0.0 0.0 0.0 0.0 0.0 0.0 0.0 0.0 0.0
0.0 0.0 0.0 0.0 0.0 0.0 0.0 0.0 0.0 0.0 0.0 0.0 0.0 0.0 0.0 0.1 0.1 0.0 0.0 0.0 0.0 0.0
0.0 0.0 0.0 0.1 0.0 0.0 0.0 0.0 0.0 0.0 0.0 0.0 0.1 0.0 2.1 3.3 2.7 1.7 0.5 0.0 0.0 0.0
0.0 0.0 1.3 0.5 0.0 0.0 0.0 0.0 0.0 0.5 0.7 1.9 0.7 2.7 3.9 4.9 4.5 2.1 0.7 0.7 0.0 0.0
0.9 3.1 2.5 0.0 0.0 0.1 1.1 0.0 2.9 2.5 1.5 2.5 1.7 3.9 5.3 5.7 3.7 2.1 0.5 0.5 0.0 0.0
4.5 4.3 2.9 0.7 0.0 2.5 3.3 3.9 4.3 2.5 2.1 3.3 1.5 5.1 6.3 6.9 3.1 2.7 1.1 0.5 0.0 0.0
4.5 4.9 4.5 4.7 1.9 2.5 3.3 3.9 4.1 2.9 3.7 5.3 4.3 6.5 7.3 6.7 5.3 5.3 4.9 2.1 0.9 0.9
4.3 3.9 4.1 5.1 2.7 2.3 1.5 3.7 3.3 4.7 4.9 6.7 6.9 7.3 7.7 7.7 7.1 9.5 8.1 6.1 3.5 5.1
2.9 3.3 4.1 4.9 3.1 2.3 3.9 5.5 6.9 7.3 5.7 6.5 7.9 8.7 9.5 9.3 9.9 11.3 11.1 9.3 8.9 7.3

GFSNIL_prec_kratio_165.txt.gz
Kuchera_Ratio
0.0 0.0 0.0 0.0 0.0 0.0 0.0 0.0 0.0 0.0 0.0 0.0 0.0 0.0 0.0 0.0 0.0 0.0 0.0 0.0 0.0 0.0
0.0 0.0 0.0 0.0 0.0 0.0 0.0 0.0 0.0 0.0 0.0 0.0 0.0 0.0 0.0 0.0 0.0 0.0 0.0 0.0 0.0 0.0
0.0 0.0 0.0 0.0 0.0 0.0 0.0 0.0 0.0 0.0 0.0 0.0 0.0 0.0 0.0 0.0 0.0 0.0 0.0 0.0 0.0 0.0
0.0 0.0 0.0 0.0 0.0 0.0 0.0 0.0 0.0 0.0 0.0 0.0 0.0 0.0 0.0 0.0 0.0 0.0 0.0 0.0 0.0 0.0
0.0 0.0 0.0 0.0 0.0 0.0 0.0 0.0 0.0 0.0 0.0 0.0 0.0 0.0 0.0 0.0 0.0 0.0 0.0 0.0 0.0 0.0
0.0 0.0 0.0 0.0 0.0 0.0 0.0 0.0 0.0 0.0 0.0 0.0 0.0 0.0 0.0 0.0 0.0 0.0 0.0 0.0 0.0 0.0
0.0 0.0 0.0 0.0 0.0 0.0 0.0 0.0 0.0 0.0 0.0 0.0 0.0 0.0 0.0 0.9 1.9 1.9 0.9 0.0 0.0 0.0
0.0 0.0 0.0 0.0 0.0 0.0 0.0 0.0 0.0 0.0 0.0 0.0 0.0 0.0 2.5 3.5 4.3 3.9 2.1 0.1 0.0 0.0
0.0 0.0 0.0 0.0 0.0 0.0 0.0 0.0 0.0 0.3 0.5 0.9 0.0 2.1 3.9 5.3 6.3 3.5 2.9 2.3 0.0 0.0
0.0 0.0 0.0 0.0 0.0 0.0 0.0 0.0 0.3 1.1 0.5 2.5 1.9 3.3 4.7 5.9 4.7 4.1 3.1 2.5 1.9 0.3
0.0 0.1 0.0 0.0 0.0 0.0 0.0 0.5 1.7 1.3 2.1 3.7 2.5 5.3 6.3 7.3 4.9 4.3 3.3 3.1 2.9 2.9
0.3 0.3 0.7 2.3 2.5 0.3 0.0 0.7 2.1 2.3 4.3 4.9 4.9 6.1 7.7 8.1 7.3 6.9 6.9 4.5 4.1 4.3
0.0 0.0 1.7 2.1 1.5 0.9 0.1 2.3 2.9 4.9 4.9 5.7 7.1 7.3 8.3 9.3 9.1 10.7 10.5 8.5 6.9 7.9
0.0 0.0 0.0 2.5 0.5 0.3 1.9 4.3 6.3 7.5 6.9 7.3 7.9 8.7 9.1 9.7 11.3 12.6 12.8 12.2 12.5 10.7

GFSNIL_prec_kratio_168.txt.gz
Kuchera_Ratio
0.0 0.0 0.0 0.0 0.0 0.0 0.0 0.0 0.0 0.0 0.0 0.0 0.0 0.0 0.0 0.0 0.0 0.0 0.0 0.0 0.0 0.0
0.0 0.0 0.0 0.0 0.0 0.0 0.0 0.0 0.0 0.0 0.0 0.0 0.0 0.0 0.0 0.0 0.0 0.0 0.0 0.0 0.0 0.0
0.0 0.0 0.0 0.0 0.0 0.0 0.0 0.0 0.0 0.0 0.0 0.0 0.0 0.0 0.0 0.0 0.0 0.0 0.0 0.0 0.0 0.0
0.0 0.0 0.0 0.0 0.0 0.0 0.0 0.0 0.0 0.0 0.0 0.0 0.0 0.0 0.0 0.0 0.0 0.0 0.0 0.0 0.0 0.0
0.0 0.0 0.0 0.0 0.0 0.0 0.0 0.0 0.0 0.0 0.0 0.0 0.0 0.0 0.0 0.3 0.9 2.3 3.1 2.3 2.1 1.7
0.0 0.0 0.0 0.0 0.0 0.0 0.0 0.0 0.0 0.0 0.0 0.0 0.0 0.0 0.1 1.1 3.1 4.1 3.9 3.5 3.7 2.9
0.0 0.0 0.0 0.0 0.0 0.0 0.0 0.0 0.0 0.0 0.0 0.0 0.0 0.0 2.5 3.9 6.1 5.5 4.7 3.5 2.3 1.5
0.0 0.0 0.0 0.0 0.0 0.0 0.0 0.0 0.0 0.0 0.3 0.3 0.7 2.3 5.5 6.5 7.7 7.9 6.3 3.7 1.7 0.9
0.0 0.0 0.0 0.0 0.0 0.0 0.0 0.0 0.0 1.5 1.7 3.5 1.5 5.7 4.5 6.7 9.5 7.5 6.9 6.7 4.9 3.9
0.0 0.0 0.0 0.0 0.0 0.3 0.3 0.3 1.9 2.7 3.9 5.3 4.7 5.5 5.5 7.1 8.7 8.5 7.7 7.5 7.9 6.5
0.5 0.3 0.3 1.1 1.5 1.5 1.1 3.1 4.7 5.1 5.7 6.7 4.7 5.9 7.3 8.1 10.5 9.9 8.7 9.5 8.9 8.9
0.0 0.9 3.1 4.5 4.5 3.3 3.7 5.5 6.7 6.3 7.9 8.5 8.3 6.9 8.3 10.7 12.5 12.2 12.4 11.5 10.1 10.5
0.0 0.3 2.9 4.5 5.5 4.3 5.1 6.3 6.9 9.5 9.5 8.1 11.1 9.1 9.3 11.7 13.7 14.5 14.5 13.6 13.0 12.3
0.0 0.3 2.1 4.5 4.7 6.1 8.5 10.1 12.1 12.3 12.4 11.7 11.7 12.8 10.9 10.9 14.2 15.0 15.3 15.4 15.8 14.7

GFSNIL_prec_kratio_171.txt.gz
Kuchera_Ratio
0.0 0.0 0.0 0.0 0.0 0.0 0.0 0.0 0.0 0.0 0.0 0.0 0.0 0.0 0.0 0.0 0.0 0.0 0.0 0.0 0.0 0.0
0.0 0.0 0.0 0.0 0.0 0.0 0.0 0.0 0.0 0.0 0.0 0.0 0.0 0.0 0.0 0.0 0.0 0.0 0.0 0.0 0.0 0.0
0.0 0.0 0.0 0.0 0.0 0.0 0.0 0.0 0.0 0.0 0.0 0.0 0.0 0.0 0.0 0.0 0.0 0.3 0.1 0.0 1.1 0.3
0.0 0.0 0.0 0.0 0.0 0.0 0.0 0.0 0.0 0.0 0.0 0.0 0.0 0.0 0.0 0.1 0.5 3.3 5.3 4.7 4.3 3.5
0.0 0.0 0.0 0.0 0.0 0.0 0.0 0.0 0.0 0.0 0.0 0.0 0.0 0.0 2.3 3.9 4.7 7.5 8.1 7.3 6.3 4.7
0.0 0.0 1.3 2.5 1.1 0.0 0.0 0.0 0.0 0.0 0.3 0.5 0.9 3.5 3.7 5.3 7.9 7.1 8.5 8.1 6.1 4.7
1.9 2.1 2.5 2.3 2.1 0.0 0.0 1.1 0.0 0.0 0.3 1.3 1.5 4.9 5.1 7.9 9.3 9.7 8.7 7.3 5.3 4.3
2.1 1.9 2.3 3.5 2.3 1.7 0.0 0.0 0.3 1.1 2.3 4.3 3.7 5.1 7.9 9.9 10.3 11.3 10.9 8.1 5.7 7.1
2.1 2.3 4.5 4.9 4.3 0.9 1.1 1.7 2.3 4.9 7.3 6.5 4.5 5.5 6.3 8.9 12.1 12.1 11.3 11.1 11.1 9.9
2.9 4.5 5.9 5.1 5.1 6.9 7.3 8.1 9.1 10.5 10.3 10.9 7.9 6.3 7.3 9.3 12.5 12.7 12.2 12.5 12.8 11.9
4.5 6.1 6.9 7.9 7.9 9.2 10.2 12.2 12.5 12.3 12.1 12.2 9.3 8.1 8.5 10.3 13.1 13.1 13.2 13.0 13.1 12.9
4.9 7.7 8.2 9.5 10.2 11.9 12.6 13.0 13.1 12.4 13.1 13.0 13.5 9.9 9.7 12.1 14.2 14.2 14.2 13.2 13.6 13.3
4.9 7.1 9.7 10.7 12.7 12.5 12.8 12.8 12.7 13.5 14.0 12.7 14.2 12.1 10.7 11.9 15.0 16.3 15.6 15.1 14.8 13.8
5.5 7.7 10.5 12.4 12.5 13.4 14.2 14.5 15.3 15.1 15.4 15.1 14.3 14.6 11.1 10.9 14.7 15.9 16.2 17.1 17.1 15.9

GFSNIL_prec_kratio_174.txt.gz
Kuchera_Ratio
0.0 0.0 0.0 0.0 0.0 0.0 0.0 0.0 0.0 0.0 0.0 0.0 0.0 0.0 0.0 0.0 0.0 0.0 0.0 0.0 0.0 0.0
0.0 0.0 0.0 0.0 0.0 0.0 0.0 0.0 0.0 0.0 0.0 0.0 0.0 0.0 0.0 0.0 0.0 0.2 1.4 5.2 5.0 5.2
0.0 0.0 0.0 0.0 0.0 0.0 0.0 0.0 0.0 0.0 0.0 0.0 0.0 0.0 0.0 0.6 2.0 5.6 7.0 5.2 7.0 6.4
0.0 0.0 0.0 0.0 0.2 0.0 0.0 0.0 0.0 0.0 0.0 1.4 0.0 1.0 2.4 3.4 6.4 8.6 8.4 8.2 8.0 7.2
0.0 0.0 0.8 1.8 0.8 0.0 0.0 0.0 0.2 0.0 1.4 0.0 1.6 3.2 5.6 8.8 9.2 10.6 11.6 10.8 10.0 7.2
1.6 2.2 3.2 3.4 2.8 1.0 1.6 2.4 0.8 1.4 1.6 2.8 4.4 6.0 7.8 9.8 10.6 11.4 11.2 11.0 10.8 7.2
3.6 4.0 4.6 4.6 3.8 3.0 2.0 3.2 4.4 2.2 3.2 5.6 6.0 7.0 9.2 10.6 12.0 12.2 11.8 10.2 8.6 10.4
4.2 3.8 5.0 5.7 5.4 4.6 4.0 5.2 5.8 7.2 8.4 8.8 7.4 6.4 8.8 11.8 12.9 13.0 12.6 12.1 11.4 11.4
4.2 5.4 6.8 7.0 7.2 7.2 8.6 9.0 10.2 11.2 11.0 11.8 7.0 6.8 7.2 10.0 13.6 13.1 13.1 13.8 13.0 12.5
5.0 7.4 8.1 8.0 9.2 10.8 12.4 12.3 12.8 13.0 12.6 13.3 12.8 8.0 8.0 9.8 13.4 13.6 13.9 13.6 13.7 13.6
7.4 9.0 10.0 10.2 12.0 12.7 13.0 14.0 14.0 14.0 13.6 14.1 12.4 9.6 8.8 11.0 13.6 14.0 13.5 13.6 14.1 14.5
8.7 10.0 11.4 12.9 13.7 13.8 14.1 14.7 14.5 14.2 14.7 15.0 14.5 11.0 9.4 12.3 14.6 14.6 14.4 13.8 14.6 14.2
8.8 10.4 12.8 13.7 14.3 14.0 14.2 14.2 13.8 14.7 15.3 13.5 15.6 13.1 10.6 11.8 15.6 16.9 16.8 16.2 15.8 14.5
9.8 11.6 12.6 13.4 13.7 14.6 15.3 15.5 16.1 16.0 16.4 16.0 15.4 15.8 12.4 10.8 15.5 16.9 17.9 18.5 18.7 17.1